• Join FlightAware (Why Join?)
  • Login
  • US Flag GB Flag 
17:34 EST


 

Airport Tracker/Info


-or-


 

Live Flight TrackerFlight Track Log ✈ AAL1459 ✈ 12-Jul-2013 ✈ KORD - KRNO

Flight Track Log - Related Links

Times and Time Zones

All times are in EDT time to prevent confusion due to time zone crossing. See the AAL1459 flight status page for this flight to view local times or setup timezone preferences in your user account.

Time Position Orientation Groundspeed Altitude Reporting Facility
EDT Latitude Longitude Course Direction KTS MPH feet Rate Location/Type
19:40 41.9333 -87.9167 261° West 186 214 2,300  Level Chicago TRACON
19:41 41.9000 -87.9667 228° Southwest 225 259 3,700 2,220 Climbing Chicago TRACON
19:43 41.9286 -88.3572 255° West  Level FlightAware Approximate
19:44 41.9116 -88.5103 261° West  Level FlightAware Approximate
19:44 41.8881 -88.1892 266° West 288 331 10,000  Level Chicago Center
19:45 41.8935 -88.6640 261° West  Level FlightAware Approximate
19:45 41.8989 -88.3250 276° West 303 349 11,900  Level Chicago Center
19:46 41.8755 -88.8185 261° West  Level FlightAware Approximate
19:46 41.9047 -88.4625 273° West 362 417 13,900  Level Chicago Center
19:47 41.9044 -88.6069 270° West 386 444 16,000 1,800 Climbing Chicago Center
19:48 41.9044 -88.7583 270° West 404 465 17,700 1,920 Climbing Chicago Center
19:49 41.8917 -88.9467 265° West 424 488 20,000 1,920 Climbing Chicago Center
19:50 41.8794 -89.1056 264° West 433 498 21,700 1,680 Climbing Chicago Center
19:51 41.8653 -89.2700 263° West 445 512 23,500 1,380 Climbing Chicago Center
19:52 41.8525 -89.4356 264° West 450 518 24,600 960 Climbing Chicago Center
19:53 41.8389 -89.6081 264° West 464 534 25,600 1,200 Climbing Chicago Center
19:54 41.8231 -89.8214 264° West 483 556 27,100 1,500 Climbing Chicago Center
19:55 41.8075 -90.0044 264° West 485 558 28,700 1,620 Climbing Chicago Center
19:56 41.7822 -90.1903 260° West 482 555 30,500 1,500 Climbing Chicago Center
19:57 41.7583 -90.3667 260° West 485 558 31,800 1,200 Climbing Chicago Center
19:58 41.7358 -90.5417 260° West 479 551 33,100 960 Climbing Chicago Center
19:59 41.7153 -90.7033 260° West 476 548 33,900 420 Climbing Chicago Center
20:00 41.6872 -90.9136 260° West 480 552 34,000 240 Climbing Chicago Center
20:01 41.6633 -91.0875 260° West 479 551 34,400 660 Climbing Chicago Center
20:02 41.6403 -91.2611 260° West 478 550 35,400 720 Climbing Chicago Center
20:03 41.6161 -91.4339 259° West 477 549 36,000 240 Climbing Chicago Center
20:04 41.5917 -91.6086 259° West 479 551 36,000  Level Chicago Center
20:05 41.5625 -91.8142 259° West 475 547 36,000  Level Chicago Center
20:06 41.5378 -91.9856 259° West 472 543 36,000  Level Chicago Center
20:07 41.5131 -92.1575 259° West 475 547 36,000  Level Chicago Center
20:08 41.4883 -92.3289 259° West 474 545 36,000  Level Chicago Center
20:09 41.4592 -92.5272 259° West 472 543 36,000  Level Chicago Center
20:10 41.4381 -92.6642 258° West 473 544 36,000  Level Minneapolis Center
20:11 41.4075 -92.8669 259° West 471 542 36,000  Level Minneapolis Center
20:12 41.3817 -93.0344 258° West 470 541 36,000  Level Minneapolis Center
20:13 41.3564 -93.2025 259° West 469 540 36,000  Level Minneapolis Center
20:14 41.3292 -93.3683 258° West 466 536 36,000  Level Minneapolis Center
20:16 41.3033 -93.5361 258° West 468 539 36,000  Level Minneapolis Center
20:17 41.2703 -93.7381 258° West 469 540 36,000  Level Minneapolis Center
20:18 41.2458 -93.8986 259° West 463 533 36,000  Level Minneapolis Center
20:19 41.2200 -94.0669 259° West 468 539 36,000  Level Minneapolis Center
20:20 41.1900 -94.2450 257° West 474 545 36,000  Level Minneapolis Center
20:21 41.1614 -94.4156 257° West 474 545 36,000  Level Minneapolis Center
20:22 41.1336 -94.5853 258° West 473 544 36,000  Level Minneapolis Center
20:23 41.0969 -94.7883 257° West 472 543 36,000  Level Minneapolis Center
20:24 41.0678 -94.9572 257° West 471 542 36,000  Level Minneapolis Center
20:25 41.0389 -95.1258 257° West 469 540 36,000  Level Minneapolis Center
20:26 41.0097 -95.2944 257° West 468 539 36,000  Level Minneapolis Center
20:27 40.9789 -95.4614 256° West 466 536 36,000  Level Minneapolis Center
20:28 40.9489 -95.6289 257° West 465 535 36,000  Level Minneapolis Center
20:29 40.9181 -95.7939 256° West 461 531 36,000  Level Minneapolis Center
20:30 40.8889 -95.9619 257° West 462 532 36,000  Level Minneapolis Center
20:31 40.8525 -96.1622 257° West 465 535 36,000  Level Minneapolis Center
20:32 40.8211 -96.3289 256° West 465 535 36,000  Level Minneapolis Center
20:33 40.7906 -96.4947 256° West 464 534 36,000  Level Minneapolis Center
20:34 40.7600 -96.6594 256° West 462 532 36,000  Level Minneapolis Center
20:35 40.7283 -96.8247 256° West 463 533 36,000  Level Minneapolis Center
20:36 40.6981 -96.9886 256° West 461 531 36,000  Level Minneapolis Center
20:37 40.6647 -97.1494 255° West 457 526 36,000  Level Minneapolis Center
20:38 40.6286 -97.3428 256° West 455 524 36,000  Level Minneapolis Center
20:39 40.5986 -97.5000 256° West 454 522 36,000  Level Minneapolis Center
20:40 40.5653 -97.6619 255° West 456 525 36,000  Level Minneapolis Center
20:41 40.5336 -97.8247 256° West 458 527 36,000  Level Minneapolis Center
20:42 40.5025 -97.9889 256° West 460 529 36,000 420 Level Minneapolis Center
20:43 40.5075 -98.1881 272° West 456 525 36,900 780 Climbing Minneapolis Center
20:44 40.5133 -98.3511 273° West 449 517 37,700 480 Climbing Minneapolis Center
20:46 40.5194 -98.5144 273° West 446 513 38,000 120 Climbing Minneapolis Center
20:47 40.5253 -98.6789 273° West 447 514 38,000  Level Minneapolis Center
20:48 40.5322 -98.8433 273° West 448 516 38,000  Level Minneapolis Center
20:49 40.5383 -99.0072 273° West 447 514 38,000  Level Minneapolis Center
20:50 40.5431 -99.1700 272° West 445 512 38,000  Level Minneapolis Center
20:51 40.5497 -99.3331 273° West 445 512 38,000  Level Minneapolis Center
20:52 40.5547 -99.5269 272° West 444 511 38,000  Level Denver Center
20:53 40.5603 -99.6897 273° West 444 511 38,000  Level Denver Center
20:54 40.5647 -99.8606 272° West 445 512 38,000  Level Denver Center
20:55 40.5689 -100.0158 272° West 446 513 38,000  Level Denver Center
20:56 40.5736 -100.1978 272° West 445 512 38,000  Level Denver Center
20:57 40.5767 -100.3539 272° West 445 512 38,000  Level Denver Center
20:58 40.5806 -100.5353 272° West 441 507 38,000  Level Denver Center
20:59 40.5828 -100.6919 271° West 442 509 38,000  Level Denver Center
21:00 40.5756 -100.8472 267° West 442 509 38,000  Level Denver Center
21:01 40.5447 -101.0222 257° West 436 502 38,000  Level Denver Center
21:02 40.5217 -101.1708 259° West 432 497 38,000  Level Denver Center
21:03 40.4931 -101.3431 258° West 431 496 38,000  Level Denver Center
21:04 40.4706 -101.4906 259° West 429 494 38,000  Level Denver Center
21:05 40.4864 -101.6400 278° West 436 502 38,000  Level Denver Center
21:06 40.5742 -101.7797 310° West 439 505 38,000  Level Denver Center
21:07 40.6550 -101.8958 313° West 446 513 38,000  Level Denver Center
21:08 40.7506 -102.0275 314° West 445 512 38,000  Level Denver Center
21:09 40.8214 -102.1506 307° West 441 507 38,000  Level Denver Center
21:10 40.8894 -102.3022 301° West 431 496 38,000  Level Denver Center
21:11 40.9486 -102.4328 301° West 431 496 38,000  Level Denver Center
21:12 40.9892 -102.5736 291° West 436 502 38,000  Level Denver Center
21:13 41.0153 -102.7417 282° West 422 486 38,000  Level Denver Center
21:14 41.0389 -102.8881 282° West 425 489 38,000  Level Denver Center
21:15 41.0767 -103.0406 288° West 424 488 38,000  Level Denver Center
21:16 41.1147 -103.2069 287° West 423 487 38,000  Level Denver Center
21:18 41.1500 -103.3486 288° West 423 487 38,000  Level Denver Center
21:19 41.1558 -103.4967 273° West 425 489 38,000  Level Denver Center
21:20 41.1603 -103.6714 272° West 425 489 38,000  Level Denver Center
21:21 41.1617 -103.8250 271° West 433 498 38,000  Level Denver Center
21:22 41.1647 -104.0028 271° West 432 497 38,000  Level Denver Center
21:23 41.1678 -104.1578 272° West 437 503 38,000  Level Denver Center
21:24 41.1728 -104.3386 272° West 439 505 38,000  Level Denver Center
21:25 41.1781 -104.4947 273° West 440 506 38,000  Level Denver Center
21:26 41.1586 -104.6467 260° West 441 507 38,000  Level Denver Center
21:27 41.1142 -104.8175 251° West 440 506 38,000  Level Denver Center
21:28 41.0767 -104.9625 251° West 436 502 38,000  Level Denver Center
21:29 41.0336 -105.1308 251° West 434 499 38,000  Level Denver Center
21:30 40.9964 -105.2589 249° West 430 495 38,000  Level Denver Center
21:31 40.9447 -105.4361 249° West 431 496 38,000  Level Denver Center
21:32 40.9025 -105.5853 250° West 435 501 38,000  Level Denver Center
21:33 40.8603 -105.7331 249° West 431 496 38,000  Level Denver Center
21:34 40.8175 -105.8789 249° West 430 495 38,000  Level Denver Center
21:35 40.7764 -106.0275 250° West 431 496 38,000  Level Denver Center
21:36 40.7342 -106.1722 249° West 419 482 38,000  Level Denver Center
21:37 40.6858 -106.3342 249° West 426 490 38,000  Level Denver Center
21:38 40.6461 -106.4739 249° West 425 489 38,000  Level Denver Center
21:39 40.6056 -106.6136 249° West 429 494 38,000  Level Denver Center
21:40 40.5625 -106.7639 249° West 438 504 38,000  Level Denver Center
21:41 40.5236 -106.9481 255° West 444 511 38,000  Level Denver Center
21:42 40.5203 -107.1097 268° West 448 516 38,000  Level Denver Center
21:43 40.5336 -107.2644 277° West 450 518 38,000  Level Denver Center
21:44 40.5508 -107.4397 277° West 442 509 38,000  Level Denver Center
21:45 40.5631 -107.5892 276° West 436 502 38,000  Level Denver Center
21:46 40.5769 -107.7639 276° West 433 498 38,000  Level Denver Center
21:47 40.5897 -107.9144 276° West 433 498 38,000  Level Denver Center
21:48 40.6042 -108.0906 276° West 434 499 38,000  Level Denver Center
21:49 40.6153 -108.2394 276° West 430 495 38,000  Level Denver Center
21:50 40.6294 -108.4150 276° West 431 496 38,000  Level Denver Center
21:51 40.6406 -108.5656 276° West 434 499 38,000  Level Denver Center
21:52 40.6522 -108.7136 276° West 431 496 38,000  Level Denver Center
21:53 40.6653 -108.8875 276° West 429 494 38,000  Level Denver Center
21:54 40.6706 -109.0336 273° West 420 483 38,000  Level Denver Center
21:56 40.6661 -109.2044 268° West 420 483 38,000  Level Denver Center
21:56 40.6650 -109.2783 269° West 421 484 38,000  Level Salt Lake Center
21:57 40.6619 -109.4478 269° West 418 481 38,000  Level Salt Lake Center
21:58 40.6589 -109.5936 268° West 418 481 38,000  Level Salt Lake Center
21:59 40.6558 -109.7386 268° West 416 479 38,000  Level Salt Lake Center
22:00 40.6519 -109.9058 268° West 411 473 38,000  Level Salt Lake Center
22:01 40.6483 -110.0478 268° West 408 470 38,000  Level Salt Lake Center
22:02 40.6439 -110.2128 268° West 405 466 38,000  Level Salt Lake Center
22:03 40.6403 -110.3625 268° West 401 461 38,000  Level Salt Lake Center
22:04 40.6369 -110.5036 268° West 402 463 38,000  Level Salt Lake Center
22:05 40.6317 -110.6431 267° West 400 460 38,000  Level Salt Lake Center
22:06 40.6269 -110.8200 268° West 403 464 38,000  Level Salt Lake Center
22:07 40.6231 -110.9661 268° West 400 460 38,000  Level Salt Lake Center
22:08 40.6172 -111.1125 267° West 400 460 38,000  Level Salt Lake Center
22:09 40.6133 -111.2597 268° West 401 461 38,000  Level Salt Lake Center
22:10 40.6075 -111.4056 267° West 400 460 38,000  Level Salt Lake Center
22:11 40.6022 -111.5542 267° West 406 467 38,000  Level Salt Lake Center
22:13 40.5969 -111.7019 267° West 403 464 38,000  Level Salt Lake Center
22:14 40.5919 -111.8497 267° West 403 464 38,000  Level Salt Lake Center
22:15 40.5861 -111.9967 267° West 405 466 38,000  Level Salt Lake Center
22:16 40.5781 -112.1725 267° West 402 463 38,000  Level Salt Lake Center
22:17 40.5719 -112.3169 267° West 394 453 38,000  Level Salt Lake Center
22:18 40.5661 -112.4614 267° West 394 453 38,000  Level Salt Lake Center
22:19 40.5589 -112.6047 266° West 393 452 38,000  Level Salt Lake Center
22:20 40.5536 -112.7483 267° West 392 451 38,000  Level Salt Lake Center
22:21 40.5467 -112.8931 266° West 396 456 38,000  Level Salt Lake Center
22:22 40.5386 -113.0381 266° West 400 460 38,000  Level Salt Lake Center
22:23 40.5317 -113.1797 266° West 392 451 38,000  Level Salt Lake Center
22:24 40.5214 -113.3556 266° West 401 461 38,000  Level Salt Lake Center
22:25 40.5144 -113.4994 266° West 397 457 38,000  Level Salt Lake Center
22:26 40.5067 -113.6453 266° West 401 461 38,000  Level Salt Lake Center
22:27 40.4989 -113.7906 266° West 400 460 38,000  Level Salt Lake Center
22:28 40.4903 -113.9358 266° West 399 459 38,000  Level Salt Lake Center
22:29 40.4806 -114.0819 265° West 402 463 38,000  Level Salt Lake Center
22:30 40.4722 -114.2283 266° West 402 463 38,000  Level Salt Lake Center
22:31 40.4639 -114.3767 266° West 406 467 38,000  Level Salt Lake Center
22:32 40.4533 -114.5558 266° West 411 473 38,000  Level Salt Lake Center
22:33 40.4453 -114.7050 266° West 411 473 38,000  Level Salt Lake Center
22:34 40.4350 -114.8567 265° West 412 474 38,000  Level Salt Lake Center
22:35 40.4236 -115.0017 264° West 415 478 38,000  Level Salt Lake Center
22:36 40.4133 -115.1722 266° West 420 483 38,000  Level Salt Lake Center
22:37 40.4031 -115.3169 265° West 418 481 38,000  Level Salt Lake Center
22:38 40.3897 -115.4856 264° West 416 479 38,000  Level Salt Lake Center
22:39 40.3803 -115.6281 265° West 412 474 38,000  Level Salt Lake Center
22:40 40.3694 -115.7703 264° West 410 472 38,000  Level Salt Lake Center
22:41 40.3539 -115.9358 263° West 408 470 38,000  Level Salt Lake Center
22:42 40.3447 -116.0769 265° West 406 467 38,000  Level Salt Lake Center
22:43 40.3317 -116.2408 264° West 406 467 38,000  Level Salt Lake Center
22:44 40.3200 -116.3814 264° West 406 467 38,000  Level Salt Lake Center
22:45 40.3089 -116.5200 264° West 402 463 38,000  Level Salt Lake Center
22:46 40.2950 -116.6847 264° West 403 464 38,000  Level Salt Lake Center
22:47 40.2808 -116.8292 263° West 409 471 38,000  Level Salt Lake Center
22:48 40.2706 -116.9761 265° West 414 476 38,000  Level Salt Lake Center
22:50 40.2572 -117.1417 264° West 407 468 38,000  Level Salt Lake Center
22:51 40.2450 -117.2814 264° West 404 465 38,000  Level Salt Lake Center
22:52 40.2314 -117.4442 264° West 402 463 38,000  Level Salt Lake Center
22:53 40.2194 -117.5850 264° West 405 466 38,000  Level Salt Lake Center
22:54 40.2072 -117.7247 264° West 405 466 38,000  Level Salt Lake Center
22:55 40.1911 -117.8883 263° West 405 466 38,000 -120 Level Salt Lake Center
22:56 40.1769 -118.0303 263° West 409 471 37,800 -1,140 Descending Salt Lake Center
22:57 40.1619 -118.1964 263° West 413 475 35,700 -2,220 Descending Salt Lake Center
22:58 40.1478 -118.3419 263° West 419 482 33,300 -2,580 Descending Salt Lake Center
22:59 40.1306 -118.5206 263° West 440 506 30,500 -2,520 Descending Salt Lake Center
23:00 40.0761 -118.6431 240° Southwest 448 516 28,200 -2,400 Descending Salt Lake Center
23:01 39.9828 -118.7542 222° Southwest 452 520 25,600 -2,940 Descending Salt Lake Center
23:02 39.8719 -118.8883 223° Southwest 456 525 22,200 -3,060 Descending Salt Lake Center
23:03 39.7839 -118.9956 223° Southwest 442 509 19,400 -2,640 Descending Salt Lake Center
23:04 39.6994 -119.0975 223° Southwest 423 487 16,800 -2,520 Descending Salt Lake Center
23:05 39.5872 -119.2331 223° Southwest 398 458 13,300 -2,040 Descending Oakland Center
23:06 39.5128 -119.3247 224° Southwest 380 437 12,000 -660 Descending Oakland Center
23:07 39.4403 -119.4106 222° Southwest 361 415 12,000  Level Oakland Center
23:08 39.3803 -119.4850 224° Southwest 309 356 12,000 -660 Level Oakland Center
23:09 39.3222 -119.5556 223° Southwest 296 341 10,700 -1,080 Descending Oakland Center
23:10 39.2556 -119.6358 223° Southwest 284 327 9,900 -840 Descending Oakland Center
23:11 39.2314 -119.7033 245° Southwest 241 277 9,100 -420 Descending Oakland Center
23:12 39.2653 -119.7644 306° West 234 269 9,100  Level Oakland Center